Forside
METAR-TAF:

METAR-TAF

Lufthavne :

Munising, Michigan, USA

Breddekreds: 46-24N, længdekreds: 086-39W, højde: 187 m

Aktuelle vejr

Denne rapport blev lavet for 1 time og 9 minutter siden, kl. 12:56 UTC
Vind 14 kt fra nordnordvest med vindstød på up til 20 kt
Temperatur 5°C
Fugtighed 75%
Tryk 1025 hPa

METAR: KP53 111256Z AUTO 34014G20KT 05/01 A3027 RMK AO1 SLP259 T00500011

Tid: 10:05 (14:05 UTC)


TAF: fraværende

Vejrobservationer og prognoser fra mere end 4000 lufthavne (METAR og TAF).

De gule og røde prikker repræsenterer de meteorologiske stationer.

Flyt musen over at se navnet på stationen.

Så klik over at se vejr observationer og prognoser.

At skifte det kort: Klik på de grønne knapper med et sort kors for at zoome ind; på den grønne knap med en bindestreg for at zoome ud; eller på de grønne pile for tilstødende kort.


METAR-TAF: